| time (UTC) | temp F | wind direction | speed MPH | gust MPH | rain 1hr in | rain 24hr in | rain mn in | humidity % | barometer mb |
| 20260507083541 | 38 | 0 | 0.0 | 1.0 | 0.00 | 0.63 | 0.00 | 98 | 1006.0 |
| 20260507083053 | 38 | 0 | 0.0 | 1.0 | 0.00 | 0.63 | 0.00 | 98 | 1006.1 |
| 20260507082542 | 38 | 67 | 0.0 | 2.0 | 0.00 | 0.63 | 0.00 | 98 | 1006.1 |
| 20260507082041 | 38 | 66 | 0.0 | 2.0 | 0.00 | 0.63 | 0.00 | 98 | 1006.2 |
| 20260507081554 | 38 | 66 | 0.0 | 2.0 | 0.00 | 0.63 | 0.00 | 98 | 1006.3 |
| 20260507081041 | 38 | 0 | 0.0 | 2.0 | 0.00 | 0.63 | 0.00 | 98 | 1006.4 |
| 20260507080545 | 38 | 0 | 0.0 | 2.0 | 0.00 | 0.63 | 0.00 | 98 | 1006.5 |
| 20260507080050 | 38 | 0 | 0.0 | 2.0 | 0.00 | 0.63 | 0.00 | 98 | 1006.5 |
| 20260507075542 | 38 | 0 | 0.0 | 1.0 | 0.00 | 0.63 | 0.00 | 98 | 1006.4 |
| 20260507075043 | 38 | 0 | 0.0 | 1.0 | 0.00 | 0.63 | 0.00 | 98 | 1006.3 |
| 20260507074555 | 38 | 63 | 0.0 | 1.0 | 0.00 | 0.63 | 0.00 | 98 | 1006.1 |
| 20260507074044 | 38 | 63 | 0.0 | 1.0 | 0.00 | 0.63 | 0.00 | 98 | 1006.0 |
| 20260507073545 | 38 | 0 | 0.0 | 1.0 | 0.00 | 0.63 | 0.00 | 98 | 1006.0 |
| 20260507073054 | 38 | 63 | 0.0 | 1.0 | 0.00 | 0.63 | 0.00 | 98 | 1005.9 |
| 20260507072546 | 38 | 0 | 0.0 | 1.0 | 0.00 | 0.63 | 0.00 | 98 | 1006.0 |
| 20260507072046 | 38 | 0 | 0.0 | 1.0 | 0.00 | 0.63 | 0.00 | 98 | 1005.9 |
| 20260507071553 | 38 | 0 | 0.0 | 1.0 | 0.00 | 0.63 | 0.00 | 98 | 1005.9 |
| 20260507071047 | 38 | 0 | 0.0 | 1.0 | 0.00 | 0.63 | 0.00 | 97 | 1005.8 |
| 20260507070547 | 38 | 63 | 0.0 | 1.0 | 0.00 | 0.63 | 0.00 | 97 | 1005.8 |
| 20260507070051 | 38 | 63 | 0.0 | 1.0 | 0.00 | 0.63 | 0.00 | 97 | 1005.7 |
| 20260507065547 | 38 | 63 | 1.0 | 1.0 | 0.00 | 0.63 | 0.00 | 97 | 1005.7 |
| 20260507065045 | 38 | 63 | 0.0 | 1.0 | 0.00 | 0.63 | 0.00 | 97 | 1005.7 |
| 20260507064605 | 38 | 63 | 0.0 | 1.0 | 0.00 | 0.63 | 0.00 | 98 | 1005.9 |
| 20260507064048 | 38 | 0 | 0.0 | 1.0 | 0.00 | 0.63 | 0.00 | 97 | 1006.0 |
| 20260507063545 | 38 | 63 | 0.0 | 1.0 | 0.00 | 0.63 | 0.00 | 98 | 1005.8 |
| 20260507063054 | 38 | 63 | 0.0 | 1.0 | 0.00 | 0.63 | 0.00 | 97 | 1005.8 |
| 20260507062546 | 38 | 63 | 0.0 | 1.0 | 0.00 | 0.63 | 0.00 | 97 | 1005.8 |
| 20260507062046 | 38 | 63 | 0.0 | 1.0 | 0.00 | 0.63 | 0.00 | 97 | 1005.9 |
| 20260507061549 | 38 | 63 | 0.0 | 1.0 | 0.00 | 0.63 | 0.00 | 98 | 1005.9 |
| 20260507061045 | 38 | 63 | 0.0 | 1.0 | 0.00 | 0.63 | 0.00 | 97 | 1005.9 |
| 20260507060547 | 38 | 63 | 0.0 | 1.0 | 0.00 | 0.63 | 0.00 | 97 | 1005.8 |
| 20260507060053 | 38 | 63 | 0.0 | 1.0 | 0.00 | 0.63 | 0.00 | 98 | 1006.1 |
| 20260507055546 | 38 | 63 | 0.0 | 1.0 | 0.00 | 0.69 | 0.00 | 97 | 1006.2 |
| 20260507055046 | 39 | 0 | 0.0 | 1.0 | 0.00 | 0.69 | 0.00 | 98 | 1006.1 |
| 20260507054555 | 38 | 0 | 0.0 | 1.0 | 0.00 | 0.69 | 0.00 | 97 | 1006.1 |
| 20260507054045 | 39 | 0 | 0.0 | 1.0 | 0.00 | 0.69 | 0.00 | 97 | 1006.0 |
| 20260507053548 | 39 | 63 | 0.0 | 1.0 | 0.00 | 0.69 | 0.00 | 98 | 1006.6 |
| 20260507053048 | 39 | 0 | 0.0 | 1.0 | 0.00 | 0.69 | 0.00 | 98 | 1006.4 |
| 20260507052550 | 39 | 63 | 0.0 | 1.0 | 0.00 | 0.69 | 0.00 | 98 | 1006.4 |
| 20260507052048 | 38 | 63 | 0.0 | 1.0 | 0.00 | 0.69 | 0.00 | 97 | 1006.2 |
| 20260507051551 | 39 | 0 | 0.0 | 1.0 | 0.00 | 0.69 | 0.00 | 97 | 1006.5 |
| 20260507051046 | 39 | 0 | 0.0 | 2.0 | 0.00 | 0.69 | 0.00 | 98 | 1006.6 |
| 20260507050546 | 38 | 0 | 0.0 | 2.0 | 0.00 | 0.69 | 0.00 | 97 | 1006.4 |
| 20260507050050 | 38 | 0 | 0.0 | 2.0 | 0.00 | 0.69 | 0.00 | 98 | 1006.5 |
| 20260507045549 | 38 | 0 | 0.0 | 0.0 | 0.00 | 0.73 | 0.00 | 97 | 1006.4 |
| 20260507045044 | 38 | 0 | 0.0 | 0.0 | 0.00 | 0.73 | 0.00 | 97 | 1006.4 |
| 20260507044551 | 38 | 0 | 0.0 | 1.0 | 0.00 | 0.73 | 0.00 | 97 | 1006.4 |
| 20260507044046 | 38 | 0 | 0.0 | 2.0 | 0.00 | 0.73 | 0.00 | 97 | 1006.5 |
| 20260507043547 | 38 | 0 | 0.0 | 2.0 | 0.00 | 0.73 | 0.00 | 97 | 1006.4 |
| 20260507043052 | 38 | 0 | 0.0 | 1.0 | 0.00 | 0.73 | 0.00 | 97 | 1006.5 |
| 20260507042544 | 38 | 0 | 0.0 | 0.0 | 0.00 | 0.73 | 0.00 | 97 | 1006.6 |
| 20260507042045 | 39 | 0 | 0.0 | 0.0 | 0.00 | 0.73 | 0.00 | 97 | 1006.5 |
| 20260507041557 | 39 | 0 | 0.0 | 1.0 | 0.00 | 0.73 | 0.00 | 97 | 1006.5 |
| 20260507041047 | 39 | 0 | 0.0 | 1.0 | 0.00 | 0.73 | 0.00 | 97 | 1006.5 |
| 20260507040547 | 39 | 36 | 0.0 | 1.0 | 0.00 | 0.73 | 0.00 | 97 | 1006.6 |
| 20260507040056 | 39 | 39 | 0.0 | 1.0 | 0.00 | 0.73 | 0.00 | 97 | 1006.6 |
| 20260507035547 | 39 | 0 | 0.0 | 1.0 | 0.00 | 0.74 | 0.73 | 97 | 1006.5 |
| 20260507035047 | 39 | 0 | 0.0 | 1.0 | 0.00 | 0.74 | 0.73 | 97 | 1006.6 |
| 20260507034555 | 39 | 0 | 0.0 | 1.0 | 0.00 | 0.74 | 0.73 | 97 | 1006.4 |
| 20260507034044 | 40 | 39 | 0.0 | 0.0 | 0.00 | 0.74 | 0.73 | 97 | 1006.2 |
| 20260507033547 | 40 | 0 | 0.0 | 0.0 | 0.00 | 0.74 | 0.73 | 97 | 1006.3 |
| 20260507033050 | 40 | 0 | 0.0 | 0.0 | 0.00 | 0.74 | 0.73 | 97 | 1006.4 |
| 20260507032548 | 40 | 0 | 0.0 | 0.0 | 0.00 | 0.74 | 0.73 | 97 | 1006.6 |
| 20260507032044 | 40 | 0 | 0.0 | 0.0 | 0.00 | 0.74 | 0.73 | 97 | 1006.6 |
| 20260507031552 | 40 | 0 | 0.0 | 0.0 | 0.00 | 0.74 | 0.73 | 97 | 1006.4 |
| 20260507031046 | 40 | 0 | 0.0 | 0.0 | 0.00 | 0.74 | 0.73 | 97 | 1006.6 |
| 20260507030547 | 40 | 0 | 0.0 | 0.0 | 0.00 | 0.74 | 0.73 | 97 | 1006.6 |
| 20260507025545 | 40 | 0 | 0.0 | 0.0 | 0.00 | 0.74 | 0.73 | 97 | 1006.5 |
| 20260507025046 | 40 | 0 | 0.0 | 0.0 | 0.00 | 0.74 | 0.73 | 97 | 1006.6 |
| 20260507024557 | 40 | 0 | 0.0 | 0.0 | 0.00 | 0.74 | 0.73 | 97 | 1006.9 |
| 20260507024046 | 40 | 0 | 0.0 | 0.0 | 0.00 | 0.74 | 0.73 | 97 | 1006.9 |
| 20260507023545 | 40 | 304 | 0.0 | 1.0 | 0.00 | 0.74 | 0.73 | 97 | 1006.9 |
| 20260507023110 | 40 | 304 | 0.0 | 1.0 | 0.00 | 0.74 | 0.73 | 97 | 1007.1 |
| 20260507022548 | 40 | 304 | 0.0 | 2.0 | 0.00 | 0.74 | 0.73 | 97 | 1007.0 |
| 20260507022047 | 40 | 0 | 0.0 | 2.0 | 0.01 | 0.74 | 0.73 | 97 | 1007.0 |
| 20260507021557 | 40 | 285 | 0.0 | 3.0 | 0.01 | 0.74 | 0.73 | 97 | 1006.9 |
| 20260507021049 | 41 | 0 | 0.0 | 3.0 | 0.01 | 0.74 | 0.73 | 97 | 1006.7 |
| 20260507020547 | 41 | 328 | 1.0 | 3.0 | 0.01 | 0.74 | 0.73 | 97 | 1006.8 |
| 20260507020052 | 41 | 304 | 1.0 | 3.0 | 0.01 | 0.74 | 0.73 | 97 | 1006.8 |
| 20260507015546 | 41 | 291 | 0.0 | 1.0 | 0.01 | 0.74 | 0.73 | 97 | 1006.7 |
| 20260507015044 | 41 | 288 | 0.0 | 2.0 | 0.01 | 0.74 | 0.73 | 97 | 1006.4 |
| 20260507014606 | 41 | 0 | 0.0 | 2.0 | 0.01 | 0.74 | 0.73 | 97 | 1006.6 |
| 20260507014046 | 41 | 269 | 0.0 | 2.0 | 0.02 | 0.74 | 0.73 | 97 | 1006.8 |
| 20260507013543 | 41 | 299 | 0.0 | 2.0 | 0.02 | 0.74 | 0.73 | 97 | 1006.9 |
| 20260507013110 | 41 | 0 | 0.0 | 2.0 | 0.02 | 0.74 | 0.73 | 97 | 1007.0 |
| 20260507012543 | 41 | 285 | 0.0 | 2.0 | 0.02 | 0.74 | 0.73 | 97 | 1006.9 |
| 20260507012045 | 41 | 283 | 0.0 | 2.0 | 0.01 | 0.73 | 0.72 | 97 | 1006.8 |
| 20260507011552 | 41 | 294 | 0.0 | 1.0 | 0.01 | 0.73 | 0.72 | 97 | 1006.9 |
| 20260507011047 | 41 | 293 | 0.0 | 2.0 | 0.01 | 0.73 | 0.72 | 97 | 1007.0 |
| 20260507010545 | 41 | 334 | 0.0 | 3.0 | 0.01 | 0.73 | 0.72 | 97 | 1006.7 |
| 20260507010058 | 41 | 284 | 0.0 | 3.0 | 0.01 | 0.73 | 0.72 | 97 | 1006.9 |
| 20260507005547 | 41 | 313 | 1.0 | 3.0 | 0.01 | 0.73 | 0.72 | 97 | 1006.8 |
| 20260507005046 | 41 | 281 | 1.0 | 3.0 | 0.01 | 0.73 | 0.72 | 97 | 1006.7 |
| 20260507004552 | 41 | 293 | 1.0 | 2.0 | 0.01 | 0.73 | 0.72 | 97 | 1006.4 |
| 20260507004044 | 41 | 340 | 0.0 | 1.0 | 0.00 | 0.72 | 0.71 | 97 | 1006.2 |
| 20260507003547 | 41 | 0 | 0.0 | 1.0 | 0.01 | 0.72 | 0.71 | 97 | 1006.3 |
| 20260507003051 | 41 | 0 | 0.0 | 1.0 | 0.01 | 0.72 | 0.71 | 97 | 1006.3 |
| 20260507002544 | 42 | 0 | 0.0 | 1.0 | 0.01 | 0.72 | 0.71 | 97 | 1006.0 |
| 20260507002044 | 41 | 328 | 0.0 | 2.0 | 0.01 | 0.72 | 0.71 | 97 | 1005.9 |
| 20260507001612 | 42 | 314 | 0.0 | 2.0 | 0.02 | 0.72 | 0.71 | 97 | 1005.9 |
| 20260507001049 | 42 | 356 | 0.0 | 2.0 | 0.02 | 0.72 | 0.71 | 97 | 1005.9 |
| 20260507000546 | 42 | 302 | 0.0 | 2.0 | 0.02 | 0.72 | 0.71 | 97 | 1005.8 |
| 20260507000051 | 42 | 274 | 0.0 | 1.0 | 0.03 | 0.72 | 0.71 | 97 | 1005.8 |
| 20260506235544 | 42 | 0 | 0.0 | 2.0 | 0.03 | 0.72 | 0.71 | 97 | 1005.7 |
| 20260506235045 | 42 | 0 | 0.0 | 2.0 | 0.03 | 0.72 | 0.71 | 97 | 1005.4 |
| 20260506234548 | 42 | 252 | 0.0 | 2.0 | 0.03 | 0.72 | 0.71 | 97 | 1005.2 |
| 20260506234048 | 42 | 2 | 1.0 | 2.0 | 0.03 | 0.72 | 0.71 | 97 | 1004.9 |
| 20260506233545 | 42 | 286 | 1.0 | 3.0 | 0.02 | 0.71 | 0.70 | 97 | 1005.0 |
| 20260506233059 | 42 | 272 | 1.0 | 3.0 | 0.02 | 0.71 | 0.70 | 97 | 1005.2 |
| 20260506232544 | 42 | 0 | 1.0 | 2.0 | 0.02 | 0.71 | 0.70 | 97 | 1005.1 |
| 20260506232045 | 42 | 269 | 1.0 | 2.0 | 0.02 | 0.71 | 0.70 | 97 | 1005.0 |
| 20260506231554 | 42 | 261 | 1.0 | 2.0 | 0.01 | 0.70 | 0.69 | 97 | 1004.9 |
| 20260506231044 | 42 | 299 | 1.0 | 2.0 | 0.01 | 0.70 | 0.69 | 96 | 1004.7 |
| 20260506230544 | 43 | 275 | 1.0 | 3.0 | 0.01 | 0.70 | 0.69 | 97 | 1005.1 |
| 20260506225546 | 43 | 274 | 1.0 | 3.0 | 0.00 | 0.69 | 0.68 | 96 | 1004.9 |
| 20260506225045 | 43 | 262 | 1.0 | 3.0 | 0.00 | 0.69 | 0.68 | 96 | 1004.6 |
| 20260506224556 | 43 | 276 | 1.0 | 3.0 | 0.00 | 0.69 | 0.68 | 96 | 1004.6 |
| 20260506224045 | 43 | 283 | 1.0 | 3.0 | 0.00 | 0.69 | 0.68 | 96 | 1004.6 |
| 20260506223545 | 44 | 304 | 1.0 | 3.0 | 0.00 | 0.69 | 0.68 | 96 | 1004.5 |
| 20260506223106 | 44 | 281 | 1.0 | 3.0 | 0.00 | 0.69 | 0.68 | 96 | 1004.5 |
| 20260506222548 | 44 | 272 | 1.0 | 3.0 | 0.00 | 0.69 | 0.68 | 96 | 1004.4 |
| 20260506222047 | 44 | 274 | 1.0 | 3.0 | 0.00 | 0.69 | 0.68 | 96 | 1004.3 |
| 20260506221559 | 44 | 208 | 0.0 | 2.0 | 0.00 | 0.69 | 0.68 | 95 | 1004.2 |
| 20260506221043 | 44 | 247 | 0.0 | 4.0 | 0.00 | 0.69 | 0.68 | 95 | 1004.1 |
| 20260506220545 | 44 | 283 | 0.0 | 4.0 | 0.00 | 0.69 | 0.68 | 95 | 1004.3 |
| 20260506220054 | 45 | 304 | 1.0 | 4.0 | 0.00 | 0.69 | 0.68 | 94 | 1004.3 |
| 20260506215546 | 45 | 250 | 1.0 | 4.0 | 0.00 | 0.69 | 0.68 | 95 | 1004.3 |
| 20260506215043 | 45 | 267 | 1.0 | 2.0 | 0.00 | 0.69 | 0.68 | 95 | 1004.3 |
| 20260506214558 | 45 | 259 | 0.0 | 3.0 | 0.00 | 0.69 | 0.68 | 96 | 1004.2 |
| 20260506214045 | 45 | 259 | 1.0 | 3.0 | 0.00 | 0.69 | 0.68 | 96 | 1004.2 |
| 20260506213550 | 45 | 0 | 1.0 | 3.0 | 0.00 | 0.69 | 0.68 | 96 | 1004.2 |
| 20260506213053 | 45 | 268 | 0.0 | 3.0 | 0.00 | 0.69 | 0.68 | 96 | 1004.2 |
| 20260506212544 | 45 | 178 | 0.0 | 1.0 | 0.00 | 0.69 | 0.68 | 96 | 1004.1 |
| 20260506212047 | 45 | 178 | 0.0 | 2.0 | 0.00 | 0.69 | 0.68 | 96 | 1004.3 |
| 20260506211551 | 45 | 0 | 0.0 | 2.0 | 0.00 | 0.69 | 0.68 | 96 | 1004.1 |
| 20260506211047 | 46 | 178 | 0.0 | 2.0 | 0.00 | 0.69 | 0.68 | 97 | 1004.1 |
| 20260506210544 | 45 | 178 | 0.0 | 1.0 | 0.01 | 0.69 | 0.68 | 97 | 1004.0 |
| 20260506205543 | 45 | 0 | 0.0 | 1.0 | 0.02 | 0.75 | 0.68 | 96 | 1004.1 |
| 20260506205045 | 45 | 178 | 0.0 | 1.0 | 0.02 | 0.75 | 0.68 | 97 | 1004.1 |
| 20260506204552 | 45 | 0 | 0.0 | 1.0 | 0.03 | 0.75 | 0.68 | 97 | 1004.0 |
| 20260506204045 | 45 | 178 | 0.0 | 1.0 | 0.03 | 0.75 | 0.68 | 97 | 1004.0 |
| 20260506203543 | 45 | 0 | 0.0 | 1.0 | 0.03 | 0.75 | 0.68 | 97 | 1004.0 |
| 20260506203055 | 45 | 0 | 0.0 | 1.0 | 0.03 | 0.75 | 0.68 | 97 | 1004.0 |
| 20260506202548 | 44 | 178 | 0.0 | 1.0 | 0.03 | 0.75 | 0.68 | 97 | 1004.1 |
| 20260506202045 | 44 | 178 | 0.0 | 1.0 | 0.03 | 0.75 | 0.68 | 96 | 1004.1 |
| 20260506201549 | 44 | 0 | 0.0 | 1.0 | 0.04 | 0.75 | 0.68 | 96 | 1004.2 |
| 20260506201048 | 45 | 178 | 0.0 | 2.0 | 0.04 | 0.75 | 0.68 | 96 | 1004.0 |
| 20260506200544 | 45 | 178 | 0.0 | 2.0 | 0.04 | 0.74 | 0.67 | 96 | 1004.1 |
| 20260506200130 | 45 | 0 | 0.0 | 2.0 | 0.03 | 0.73 | 0.66 | 97 | 1004.0 |
| 20260506195544 | 45 | 0 | 0.0 | 2.0 | 0.03 | 0.75 | 0.66 | 96 | 1004.0 |
| 20260506195046 | 45 | 178 | 1.0 | 2.0 | 0.02 | 0.74 | 0.65 | 96 | 1004.2 |
| 20260506194609 | 45 | 178 | 0.0 | 1.0 | 0.03 | 0.74 | 0.65 | 97 | 1004.2 |
| 20260506194043 | 46 | 0 | 0.0 | 1.0 | 0.04 | 0.74 | 0.65 | 97 | 1004.0 |
| 20260506193546 | 45 | 0 | 1.0 | 1.0 | 0.04 | 0.74 | 0.65 | 97 | 1004.0 |
| 20260506193051 | 45 | 178 | 1.0 | 2.0 | 0.04 | 0.74 | 0.65 | 97 | 1004.0 |
| 20260506192544 | 45 | 0 | 0.0 | 2.0 | 0.04 | 0.74 | 0.65 | 97 | 1004.1 |
| 20260506192044 | 45 | 178 | 0.0 | 3.0 | 0.04 | 0.74 | 0.65 | 97 | 1004.0 |
| 20260506191552 | 45 | 178 | 0.0 | 3.0 | 0.03 | 0.73 | 0.64 | 96 | 1004.2 |
| 20260506191044 | 45 | 178 | 1.0 | 3.0 | 0.03 | 0.73 | 0.64 | 97 | 1004.2 |
| 20260506190546 | 45 | 178 | 1.0 | 3.0 | 0.02 | 0.72 | 0.63 | 96 | 1004.1 |
| 20260506190048 | 45 | 178 | 0.0 | 2.0 | 0.02 | 0.72 | 0.63 | 96 | 1004.2 |
| 20260506185546 | 45 | 0 | 0.0 | 2.0 | 0.03 | 0.72 | 0.63 | 96 | 1004.0 |
| 20260506185044 | 46 | 178 | 1.0 | 1.0 | 0.03 | 0.72 | 0.63 | 96 | 1004.1 |
| 20260506184556 | 46 | 178 | 1.0 | 1.0 | 0.02 | 0.71 | 0.62 | 96 | 1004.0 |
| 20260506184048 | 46 | 178 | 0.0 | 2.0 | 0.02 | 0.70 | 0.61 | 96 | 1004.0 |
| 20260506183548 | 47 | 178 | 0.0 | 2.0 | 0.03 | 0.70 | 0.61 | 96 | 1004.0 |
| 20260506183058 | 47 | 178 | 1.0 | 2.0 | 0.04 | 0.70 | 0.61 | 96 | 1004.1 |
| 20260506182544 | 48 | 178 | 0.0 | 2.0 | 0.06 | 0.70 | 0.61 | 96 | 1004.0 |
| 20260506182044 | 48 | 178 | 0.0 | 2.0 | 0.09 | 0.70 | 0.61 | 96 | 1004.1 |
| 20260506181559 | 49 | 178 | 1.0 | 2.0 | 0.12 | 0.70 | 0.61 | 96 | 1003.9 |
| 20260506181044 | 49 | 0 | 0.0 | 1.0 | 0.13 | 0.70 | 0.61 | 96 | 1004.2 |
| 20260506180545 | 49 | 178 | 0.0 | 2.0 | 0.15 | 0.70 | 0.61 | 96 | 1004.3 |
| 20260506175548 | 50 | 178 | 0.0 | 2.0 | 0.14 | 0.69 | 0.60 | 97 | 1004.4 |
| 20260506175044 | 50 | 178 | 0.0 | 1.0 | 0.15 | 0.69 | 0.60 | 97 | 1004.4 |
| 20260506174553 | 49 | 0 | 0.0 | 0.0 | 0.14 | 0.68 | 0.58 | 97 | 1004.6 |
| 20260506174047 | 49 | 0 | 0.0 | 2.0 | 0.15 | 0.68 | 0.58 | 96 | 1004.6 |
| 20260506173548 | 49 | 0 | 0.0 | 2.0 | 0.15 | 0.67 | 0.58 | 96 | 1004.8 |
| 20260506173116 | 50 | 0 | 0.0 | 2.0 | 0.15 | 0.66 | 0.57 | 96 | 1004.8 |
| 20260506172546 | 50 | 178 | 0.0 | 2.0 | 0.14 | 0.64 | 0.55 | 96 | 1004.8 |
| 20260506172045 | 51 | 0 | 1.0 | 2.0 | 0.12 | 0.61 | 0.52 | 95 | 1004.8 |
| 20260506171601 | 52 | 178 | 2.0 | 2.0 | 0.10 | 0.58 | 0.49 | 96 | 1004.7 |
| 20260506171047 | 53 | 178 | 0.0 | 2.0 | 0.09 | 0.57 | 0.48 | 98 | 1004.4 |
| 20260506170543 | 53 | 0 | 0.0 | 1.0 | 0.08 | 0.55 | 0.46 | 98 | 1004.7 |
| 20260506170053 | 52 | 178 | 0.0 | 0.0 | 0.09 | 0.55 | 0.46 | 97 | 1004.6 |
| 20260506165546 | 52 | 0 | 0.0 | 2.0 | 0.09 | 0.55 | 0.46 | 97 | 1004.7 |
| 20260506165046 | 52 | 0 | 0.0 | 2.0 | 0.09 | 0.54 | 0.45 | 97 | 1004.8 |
| 20260506164558 | 52 | 178 | 1.0 | 2.0 | 0.10 | 0.54 | 0.45 | 96 | 1004.8 |
| 20260506164045 | 53 | 178 | 1.0 | 2.0 | 0.10 | 0.52 | 0.44 | 98 | 1004.8 |
| 20260506163545 | 54 | 178 | 0.0 | 1.0 | 0.09 | 0.52 | 0.43 | 98 | 1004.7 |
| 20260506163107 | 53 | 0 | 0.0 | 1.0 | 0.09 | 0.51 | 0.42 | 98 | 1004.8 |
| 20260506162549 | 53 | 178 | 0.0 | 2.0 | 0.09 | 0.50 | 0.41 | 98 | 1004.8 |
| 20260506162047 | 53 | 178 | 0.0 | 2.0 | 0.09 | 0.49 | 0.40 | 98 | 1005.0 |
| 20260506161558 | 53 | 0 | 0.0 | 1.0 | 0.08 | 0.48 | 0.39 | 98 | 1005.0 |
| 20260506161046 | 52 | 0 | 0.0 | 1.0 | 0.09 | 0.48 | 0.39 | 98 | 1005.1 |
| 20260506160545 | 52 | 0 | 0.0 | 1.0 | 0.09 | 0.47 | 0.38 | 98 | 1005.2 |
| 20260506160105 | 51 | 0 | 0.0 | 1.0 | 0.08 | 0.46 | 0.37 | 98 | 1005.4 |
| 20260506155545 | 51 | 0 | 0.0 | 1.0 | 0.09 | 0.46 | 0.37 | 98 | 1005.3 |
| 20260506155045 | 50 | 178 | 0.0 | 0.0 | 0.09 | 0.45 | 0.36 | 97 | 1005.4 |
| 20260506154553 | 50 | 178 | 0.0 | 1.0 | 0.08 | 0.44 | 0.35 | 97 | 1005.5 |
| 20260506154045 | 50 | 0 | 0.0 | 1.0 | 0.08 | 0.43 | 0.34 | 97 | 1005.5 |
| 20260506153545 | 50 | 178 | 0.0 | 2.0 | 0.07 | 0.42 | 0.33 | 97 | 1005.7 |
| 20260506153055 | 50 | 0 | 1.0 | 2.0 | 0.08 | 0.42 | 0.33 | 97 | 1005.8 |
| 20260506152545 | 51 | 178 | 1.0 | 2.0 | 0.07 | 0.41 | 0.32 | 97 | 1005.7 |
| 20260506152048 | 50 | 0 | 0.0 | 1.0 | 0.07 | 0.40 | 0.31 | 97 | 1005.6 |
| 20260506151554 | 50 | 178 | 0.0 | 0.0 | 0.07 | 0.40 | 0.31 | 97 | 1005.5 |
| 20260506151045 | 50 | 0 | 0.0 | 0.0 | 0.06 | 0.39 | 0.30 | 97 | 1005.7 |
| 20260506150545 | 50 | 178 | 0.0 | 0.0 | 0.06 | 0.38 | 0.29 | 97 | 1006.0 |
| 20260506150058 | 50 | 0 | 0.0 | 0.0 | 0.05 | 0.37 | 0.28 | 97 | 1006.0 |
| 20260506145548 | 50 | 0 | 0.0 | 0.0 | 0.06 | 0.37 | 0.28 | 97 | 1006.0 |
| 20260506145045 | 50 | 178 | 0.0 | 0.0 | 0.05 | 0.36 | 0.27 | 97 | 1005.8 |
| 20260506144555 | 50 | 0 | 0.0 | 0.0 | 0.06 | 0.36 | 0.27 | 97 | 1006.1 |
| 20260506144045 | 49 | 178 | 0.0 | 0.0 | 0.05 | 0.35 | 0.26 | 97 | 1006.1 |
| 20260506143545 | 49 | 0 | 0.0 | 1.0 | 0.06 | 0.35 | 0.26 | 97 | 1006.1 |
| 20260506143055 | 49 | 0 | 0.0 | 1.0 | 0.05 | 0.34 | 0.25 | 97 | 1006.1 |
| 20260506142544 | 49 | 0 | 0.0 | 1.0 | 0.06 | 0.34 | 0.25 | 97 | 1006.2 |
| 20260506142047 | 49 | 0 | 0.0 | 1.0 | 0.05 | 0.33 | 0.24 | 97 | 1006.2 |
| 20260506141556 | 49 | 178 | 0.0 | 1.0 | 0.06 | 0.33 | 0.24 | 97 | 1006.1 |
| 20260506141045 | 49 | 0 | 0.0 | 1.0 | 0.07 | 0.33 | 0.24 | 97 | 1006.1 |
| 20260506140545 | 50 | 0 | 0.0 | 1.0 | 0.06 | 0.32 | 0.23 | 97 | 1006.2 |
| 20260506140053 | 50 | 178 | 0.0 | 1.0 | 0.07 | 0.32 | 0.23 | 97 | 1006.2 |
| 20260506135543 | 49 | 0 | 0.0 | 0.0 | 0.07 | 0.31 | 0.22 | 97 | 1006.2 |
| 20260506135043 | 49 | 0 | 0.0 | 1.0 | 0.08 | 0.31 | 0.22 | 97 | 1006.2 |
| 20260506134615 | 49 | 178 | 0.0 | 1.0 | 0.07 | 0.30 | 0.21 | 97 | 1006.3 |
| 20260506134046 | 49 | 178 | 0.0 | 1.0 | 0.08 | 0.30 | 0.21 | 97 | 1006.4 |
| 20260506133544 | 49 | 0 | 0.0 | 1.0 | 0.07 | 0.29 | 0.20 | 97 | 1006.4 |
| 20260506133051 | 49 | 0 | 0.0 | 1.0 | 0.08 | 0.29 | 0.20 | 97 | 1006.5 |
| 20260506132543 | 49 | 178 | 0.0 | 1.0 | 0.07 | 0.28 | 0.19 | 97 | 1006.6 |
| 20260506132045 | 50 | 178 | 0.0 | 0.0 | 0.07 | 0.28 | 0.19 | 97 | 1006.4 |
| 20260506131607 | 49 | 0 | 0.0 | 0.0 | 0.07 | 0.27 | 0.18 | 97 | 1006.5 |
| 20260506131044 | 49 | 0 | 0.0 | 1.0 | 0.06 | 0.26 | 0.17 | 97 | 1006.5 |
| 20260506130543 | 49 | 0 | 0.0 | 1.0 | 0.06 | 0.26 | 0.17 | 97 | 1006.7 |
| 20260506130052 | 49 | 0 | 0.0 | 2.0 | 0.05 | 0.25 | 0.16 | 97 | 1006.7 |
| 20260506125544 | 49 | 0 | 0.0 | 2.0 | 0.04 | 0.24 | 0.15 | 97 | 1006.6 |
| 20260506125045 | 49 | 0 | 1.0 | 3.0 | 0.03 | 0.23 | 0.14 | 97 | 1006.9 |
| 20260506124557 | 49 | 0 | 0.0 | 3.0 | 0.03 | 0.23 | 0.14 | 97 | 1006.9 |
| 20260506124044 | 49 | 178 | 1.0 | 2.0 | 0.03 | 0.22 | 0.13 | 97 | 1007.1 |
| 20260506123544 | 49 | 0 | 0.0 | 1.0 | 0.03 | 0.22 | 0.13 | 97 | 1006.9 |
| 20260506123048 | 49 | 0 | 0.0 | 1.0 | 0.02 | 0.21 | 0.12 | 97 | 1006.8 |
| 20260506122544 | 49 | 0 | 0.0 | 1.0 | 0.02 | 0.21 | 0.12 | 97 | 1006.8 |
| 20260506122043 | 50 | 178 | 0.0 | 0.0 | 0.02 | 0.21 | 0.12 | 97 | 1007.0 |
| 20260506121554 | 50 | 0 | 0.0 | 0.0 | 0.01 | 0.20 | 0.11 | 97 | 1006.9 |
| 20260506121045 | 50 | 0 | 0.0 | 1.0 | 0.01 | 0.20 | 0.11 | 97 | 1006.9 |
| 20260506120545 | 50 | 0 | 0.0 | 1.0 | 0.01 | 0.20 | 0.11 | 97 | 1007.0 |
| 20260506120051 | 50 | 178 | 0.0 | 2.0 | 0.01 | 0.20 | 0.11 | 97 | 1007.0 |
| 20260506115544 | 50 | 0 | 0.0 | 2.0 | 0.01 | 0.20 | 0.11 | 97 | 1006.9 |
| 20260506115044 | 50 | 172 | 1.0 | 2.0 | 0.01 | 0.20 | 0.11 | 97 | 1007.2 |
| 20260506114552 | 50 | 0 | 0.0 | 1.0 | 0.01 | 0.20 | 0.11 | 97 | 1007.0 |
| 20260506114043 | 50 | 178 | 0.0 | 1.0 | 0.00 | 0.19 | 0.10 | 97 | 1007.0 |
| 20260506113543 | 50 | 0 | 1.0 | 1.0 | 0.00 | 0.19 | 0.10 | 97 | 1007.2 |
| 20260506113046 | 50 | 0 | 0.0 | 0.0 | 0.00 | 0.19 | 0.10 | 97 | 1006.8 |
| 20260506112545 | 50 | 178 | 0.0 | 0.0 | 0.00 | 0.19 | 0.10 | 97 | 1007.0 |
| 20260506112045 | 50 | 0 | 0.0 | 0.0 | 0.00 | 0.19 | 0.10 | 97 | 1007.0 |
| 20260506111608 | 50 | 0 | 0.0 | 1.0 | 0.00 | 0.19 | 0.10 | 97 | 1007.1 |
| 20260506111042 | 50 | 0 | 0.0 | 1.0 | 0.00 | 0.19 | 0.10 | 97 | 1007.1 |
| 20260506110543 | 50 | 0 | 0.0 | 0.0 | 0.00 | 0.19 | 0.10 | 97 | 1007.1 |
| 20260506110051 | 49 | 0 | 0.0 | 0.0 | 0.00 | 0.19 | 0.10 | 97 | 1007.0 |
| 20260506105544 | 49 | 0 | 0.0 | 0.0 | 0.00 | 0.19 | 0.10 | 97 | 1007.0 |
| 20260506105042 | 49 | 0 | 0.0 | 0.0 | 0.00 | 0.19 | 0.10 | 97 | 1006.8 |
| 20260506104547 | 49 | 0 | 0.0 | 0.0 | 0.00 | 0.19 | 0.10 | 97 | 1006.7 |
| 20260506104045 | 49 | 0 | 0.0 | 0.0 | 0.00 | 0.19 | 0.10 | 97 | 1006.6 |
| 20260506103543 | 49 | 0 | 0.0 | 0.0 | 0.00 | 0.19 | 0.10 | 97 | 1007.0 |
| 20260506103047 | 49 | 0 | 0.0 | 0.0 | 0.00 | 0.19 | 0.10 | 97 | 1006.9 |
| 20260506102542 | 49 | 0 | 0.0 | 1.0 | 0.00 | 0.19 | 0.10 | 97 | 1006.9 |
| 20260506102044 | 49 | 0 | 0.0 | 1.0 | 0.00 | 0.19 | 0.10 | 97 | 1006.4 |
| 20260506101549 | 49 | 131 | 0.0 | 1.0 | 0.00 | 0.19 | 0.10 | 97 | 1006.6 |
| 20260506101044 | 49 | 0 | 0.0 | 1.0 | 0.00 | 0.19 | 0.10 | 97 | 1006.4 |
| 20260506100544 | 49 | 0 | 0.0 | 1.0 | 0.00 | 0.19 | 0.10 | 97 | 1007.0 |
| 20260506100051 | 49 | 0 | 0.0 | 1.0 | 0.00 | 0.19 | 0.10 | 97 | 1006.8 |
| 20260506095544 | 49 | 0 | 0.0 | 1.0 | 0.00 | 0.19 | 0.10 | 97 | 1006.7 |
| 20260506095047 | 49 | 0 | 0.0 | 1.0 | 0.00 | 0.19 | 0.10 | 96 | 1006.9 |
| 20260506094550 | 49 | 0 | 0.0 | 1.0 | 0.00 | 0.19 | 0.10 | 96 | 1006.9 |
| 20260506094043 | 49 | 0 | 0.0 | 1.0 | 0.00 | 0.19 | 0.10 | 96 | 1007.0 |
| 20260506093547 | 49 | 0 | 0.0 | 1.0 | 0.00 | 0.19 | 0.10 | 96 | 1006.9 |
| 20260506093058 | 49 | 0 | 0.0 | 0.0 | 0.00 | 0.19 | 0.10 | 96 | 1007.0 |
| 20260506092544 | 49 | 0 | 0.0 | 1.0 | 0.00 | 0.19 | 0.10 | 96 | 1007.0 |
| 20260506092051 | 49 | 0 | 0.0 | 1.0 | 0.00 | 0.19 | 0.10 | 96 | 1007.0 |
| 20260506091604 | 49 | 130 | 0.0 | 1.0 | 0.00 | 0.19 | 0.10 | 96 | 1007.1 |
| 20260506091046 | 49 | 129 | 0.0 | 1.0 | 0.00 | 0.19 | 0.10 | 96 | 1007.3 |
| 20260506090551 | 49 | 129 | 1.0 | 1.0 | 0.00 | 0.19 | 0.10 | 96 | 1007.2 |
| 20260506090054 | 49 | 129 | 0.0 | 1.0 | 0.00 | 0.19 | 0.10 | 96 | 1007.0 |
| 20260506085543 | 49 | 130 | 0.0 | 1.0 | 0.00 | 0.19 | 0.10 | 96 | 1007.3 |
| 20260506085043 | 49 | 129 | 0.0 | 1.0 | 0.00 | 0.19 | 0.10 | 96 | 1007.2 |
| 20260506084604 | 49 | 136 | 0.0 | 1.0 | 0.00 | 0.19 | 0.10 | 96 | 1007.0 |